Regional Weather Roundup
Issued by NWS Sioux Falls, SD

Home | Current Version | Previous Version | Graphics & Text | Print | Product List | Glossary On
Versions: 1 2 3 4 5 6 7 8 9 10 11 12 13 14 15 16 17 18 19 20 21 22 23 24 25 26 27 28 29 30 31 32 33 34 35 36 37 38 39 40 41 42 43 44 45 46 47 48 49 50
635
ASUS43 KFSD 121510
RWRFSD

WEATHER ROUNDUP FOR SE SOUTH DAKOTA/SW MINNESOTA/NW IOWA
NATIONAL WEATHER SERVICE SIOUX FALLS SD
900 AM CST FRI FEB 12 2016

NOTE: "FAIR" INDICATES FEW OR NO CLOUDS BELOW 12,000 FEET WITH NO
SIGNIFICANT WEATHER AND OR OBSTRUCTIONS TO VISIBILITY.


SDZ038>040-050-052>070-121600-
SOUTHEAST SOUTH DAKOTA

CITY           SKY/WX    TMP DP  RH WIND       PRES   REMARKS
BROOKINGS      CLOUDY     8   0  69 N14       30.45R WCI  -8
CHAMBERLAIN    CLOUDY    19  14  80 N12       30.48R WCI   7
HURON          FLURRIES  12   6  77 N13       30.53R WCI  -3
MADISON        PTSUNNY    9   9 100 N17       30.44R WCI -10
MITCHELL       CLOUDY    15  10  80 N15       30.51R WCI   0
SIOUX FALLS    CLOUDY    12   6  77 N13       30.45R WCI  -3
WINNER         CLOUDY    22  15  75 NE12      30.46R WCI  10
YANKTON        CLOUDY    18  10  73 NW15      30.48R WCI   3
$$

MNZ071-072-080-081-089-090-097-098-121600-
SOUTHWEST MINNESOTA

CITY           SKY/WX    TMP DP  RH WIND       PRES   REMARKS
FAIRMONT       SUNNY     10   1  67 NW18      30.37R WCI  -8
JACKSON        MOSUNNY   10   3  72 NW29G36   30.39R HAZE    WCI -11
LUVERNE        FLURRIES  14   7  73 N9        30.45R WCI   2
MARSHALL       SUNNY      7  -2  66 NW23      30.46R WCI -14
MONTEVIDEO     SUNNY      7   0  72 N17G23    30.49R WCI -12
PIPESTONE      CLOUDY    10   0  61 N12G18    30.41R WCI  -4
REDWOOD FALLS  SUNNY      7  -3  64 NW17G26   30.44R WCI -12
TRACY          SUNNY      8   0  69 NW17G25   30.45R WCI -10
WINDOM         SUNNY      7   0  72 NW23      30.40R WCI -14
WORTHINGTON    CLOUDY     9   3  78 N17       30.41R WCI -10
$$

IAZ001>003-012>014-020>022-031-032-NEZ013-014-SDZ071-121600-
NORTHWEST IOWA

CITY           SKY/WX    TMP DP  RH WIND       PRES   REMARKS
CHEROKEE       MOSUNNY   15  10  80 N13       30.43R WCI   0
DENISON        CLOUDY    18  12  79 N14       30.39R WCI   4
ESTHERVILLE    SUNNY      9   4  80 NW25G31   30.40R HAZE    WCI -12
LE MARS        CLOUDY    16  12  86 N12       30.46R WCI   3
ORANGE CITY    MOSUNNY   14   9  79 N12G17    30.43R WCI   0
SHELDON        PTSUNNY   10   5  79 N12       30.42R WCI  -4
SIOUX CITY     CLOUDY    21  10  62 N17       30.45R WCI   7
SPENCER        CLOUDY    11   4  73 N17       30.42R WCI  -6
STORM LAKE     MOSUNNY   12   9  85 N15       30.40R WCI  -4
$$

ABBREVIATIONS USED IN REMARKS
   TC - TEMPERATURE IN CELSIUS
  WCI - WIND CHILL INDEX
   HX - HEAT INDEX
  VSB - VISIBILITY





USA.gov is the U.S. government's official web portal to all federal, state and local government web resources and services.